| time (UTC) | temp F | wind direction | speed knots | gust knots | rain 1hr in | rain 24hr in | rain mn in | humidity % | barometer mb |
| 20260508060027 | 41 | 311 | 0.0 | 0.0 | 0.00 | 0.01 | 0.00 | 65 | 1006.7 |
| 20260508055521 | 41 | 311 | 0.0 | 0.0 | 0.00 | 0.01 | 0.00 | 67 | 1006.8 |
| 20260508055020 | 41 | 315 | 0.0 | 0.0 | 0.00 | 0.01 | 0.00 | 66 | 1006.9 |
| 20260508054553 | 41 | 315 | 0.0 | 0.0 | 0.00 | 0.01 | 0.00 | 65 | 1007.0 |
| 20260508054022 | 41 | 302 | 0.0 | 0.0 | 0.00 | 0.01 | 0.00 | 66 | 1007.0 |
| 20260508053518 | 41 | 301 | 0.0 | 0.0 | 0.00 | 0.01 | 0.00 | 66 | 1007.1 |
| 20260508053018 | 41 | 303 | 0.0 | 0.0 | 0.00 | 0.01 | 0.00 | 67 | 1007.2 |
| 20260508052518 | 41 | 303 | 0.0 | 0.0 | 0.00 | 0.01 | 0.00 | 65 | 1007.2 |
| 20260508052017 | 41 | 303 | 0.0 | 0.0 | 0.00 | 0.01 | 0.00 | 67 | 1007.2 |
| 20260508051516 | 41 | 309 | 0.0 | 0.0 | 0.00 | 0.01 | 0.00 | 65 | 1007.2 |
| 20260508051016 | 41 | 308 | 0.0 | 0.0 | 0.00 | 0.01 | 0.00 | 66 | 1007.2 |
| 20260508050516 | 41 | 308 | 0.0 | 0.0 | 0.00 | 0.01 | 0.00 | 64 | 1007.2 |
| 20260508050019 | 41 | 308 | 0.0 | 0.0 | 0.00 | 0.10 | 0.00 | 64 | 1007.3 |
| 20260508045516 | 41 | 308 | 0.0 | 0.0 | 0.00 | 0.10 | 0.00 | 65 | 1007.3 |
| 20260508045016 | 41 | 308 | 0.0 | 0.0 | 0.00 | 0.10 | 0.00 | 66 | 1007.3 |
| 20260508044516 | 41 | 298 | 0.0 | 0.0 | 0.00 | 0.10 | 0.00 | 66 | 1007.3 |
| 20260508044015 | 41 | 296 | 0.0 | 0.0 | 0.00 | 0.10 | 0.00 | 67 | 1007.3 |
| 20260508043514 | 41 | 296 | 0.0 | 0.0 | 0.00 | 0.10 | 0.00 | 68 | 1007.3 |
| 20260508043014 | 42 | 302 | 0.0 | 0.0 | 0.00 | 0.10 | 0.00 | 67 | 1007.2 |
| 20260508042517 | 41 | 300 | 0.0 | 0.0 | 0.00 | 0.10 | 0.00 | 64 | 1007.3 |
| 20260508042014 | 41 | 304 | 0.0 | 0.0 | 0.00 | 0.10 | 0.00 | 65 | 1007.3 |
| 20260508041514 | 41 | 280 | 0.0 | 0.0 | 0.00 | 0.10 | 0.00 | 64 | 1007.5 |
| 20260508041011 | 42 | 280 | 0.0 | 0.0 | 0.00 | 0.10 | 0.00 | 68 | 1007.4 |
| 20260508040510 | 42 | 279 | 0.0 | 0.0 | 0.00 | 0.10 | 0.00 | 67 | 1007.3 |
| 20260508040009 | 42 | 279 | 0.0 | 0.0 | 0.00 | 0.13 | 0.10 | 67 | 1007.2 |
| 20260508035508 | 42 | 279 | 0.0 | 0.0 | 0.00 | 0.13 | 0.10 | 65 | 1007.2 |
| 20260508035008 | 42 | 279 | 0.0 | 0.0 | 0.00 | 0.13 | 0.10 | 64 | 1007.2 |
| 20260508034510 | 43 | 279 | 0.0 | 0.0 | 0.00 | 0.13 | 0.10 | 64 | 1007.3 |
| 20260508034008 | 43 | 279 | 0.0 | 0.0 | 0.00 | 0.13 | 0.10 | 66 | 1007.3 |
| 20260508033505 | 43 | 306 | 0.0 | 0.0 | 0.00 | 0.13 | 0.10 | 66 | 1007.3 |
| 20260508033011 | 44 | 306 | 0.0 | 0.0 | 0.00 | 0.13 | 0.10 | 64 | 1007.4 |
| 20260508032504 | 44 | 306 | 0.0 | 0.0 | 0.00 | 0.13 | 0.10 | 63 | 1007.5 |
| 20260508032003 | 44 | 306 | 0.0 | 0.0 | 0.00 | 0.13 | 0.10 | 60 | 1007.5 |
| 20260508031505 | 44 | 306 | 0.0 | 0.0 | 0.00 | 0.13 | 0.10 | 57 | 1007.5 |
| 20260508031002 | 45 | 306 | 0.0 | 0.0 | 0.00 | 0.13 | 0.10 | 57 | 1007.5 |
| 20260508030502 | 45 | 306 | 0.0 | 0.0 | 0.00 | 0.13 | 0.10 | 60 | 1007.4 |
| 20260508030002 | 45 | 306 | 0.0 | 0.0 | 0.00 | 0.14 | 0.10 | 59 | 1007.4 |
| 20260508025600 | 45 | 306 | 0.0 | 0.0 | 0.00 | 0.14 | 0.10 | 56 | 1007.3 |
| 20260508025100 | 46 | 306 | 0.0 | 0.0 | 0.00 | 0.14 | 0.10 | 58 | 1007.3 |
| 20260508024618 | 46 | 306 | 0.0 | 0.0 | 0.00 | 0.14 | 0.10 | 56 | 1007.2 |
| 20260508024059 | 46 | 311 | 0.0 | 0.0 | 0.00 | 0.14 | 0.10 | 58 | 1007.2 |
| 20260508023559 | 46 | 294 | 0.0 | 0.0 | 0.00 | 0.14 | 0.10 | 57 | 1007.2 |
| 20260508023059 | 46 | 305 | 0.0 | 0.0 | 0.00 | 0.14 | 0.10 | 57 | 1007.1 |
| 20260508022602 | 46 | 304 | 0.0 | 0.0 | 0.00 | 0.14 | 0.10 | 58 | 1007.1 |
| 20260508022059 | 46 | 304 | 0.0 | 0.0 | 0.00 | 0.14 | 0.10 | 59 | 1007.1 |
| 20260508021559 | 46 | 297 | 0.0 | 0.0 | 0.00 | 0.14 | 0.10 | 56 | 1007.0 |
| 20260508021058 | 47 | 297 | 0.0 | 0.0 | 0.00 | 0.14 | 0.10 | 58 | 1007.0 |
| 20260508020559 | 47 | 311 | 0.0 | 0.0 | 0.00 | 0.14 | 0.10 | 58 | 1006.9 |
| 20260508020106 | 47 | 24 | 0.0 | 0.0 | 0.00 | 0.14 | 0.10 | 58 | 1006.9 |
| 20260508015559 | 47 | 342 | 0.0 | 0.0 | 0.00 | 0.19 | 0.10 | 58 | 1006.9 |
| 20260508015059 | 48 | 342 | 0.0 | 0.0 | 0.00 | 0.19 | 0.10 | 57 | 1006.9 |
| 20260508014620 | 48 | 342 | 0.0 | 0.0 | 0.00 | 0.19 | 0.10 | 56 | 1006.8 |
| 20260508014058 | 48 | 342 | 0.0 | 0.0 | 0.00 | 0.19 | 0.10 | 56 | 1006.9 |
| 20260508013557 | 49 | 342 | 0.0 | 0.0 | 0.00 | 0.19 | 0.10 | 56 | 1006.9 |
| 20260508013101 | 49 | 342 | 0.0 | 0.0 | 0.00 | 0.19 | 0.10 | 54 | 1006.8 |
| 20260508012557 | 49 | 310 | 0.0 | 0.0 | 0.00 | 0.19 | 0.10 | 54 | 1006.7 |
| 20260508012058 | 49 | 336 | 0.0 | 0.0 | 0.00 | 0.19 | 0.10 | 51 | 1006.7 |
| 20260508011612 | 49 | 296 | 0.0 | 0.0 | 0.00 | 0.19 | 0.10 | 52 | 1006.6 |
| 20260508011057 | 49 | 297 | 0.0 | 0.0 | 0.00 | 0.19 | 0.10 | 53 | 1006.5 |
| 20260508010557 | 49 | 296 | 0.0 | 0.0 | 0.00 | 0.19 | 0.10 | 52 | 1006.5 |
| 20260508005558 | 50 | 298 | 0.0 | 0.0 | 0.00 | 0.19 | 0.10 | 52 | 1006.5 |
| 20260508005056 | 50 | 298 | 0.0 | 0.0 | 0.00 | 0.19 | 0.10 | 52 | 1006.3 |
| 20260508004557 | 51 | 298 | 0.0 | 0.0 | 0.00 | 0.19 | 0.10 | 53 | 1006.2 |
| 20260508004056 | 51 | 302 | 0.0 | 0.0 | 0.00 | 0.19 | 0.10 | 50 | 1006.1 |
| 20260508003556 | 51 | 302 | 0.0 | 0.0 | 0.00 | 0.19 | 0.10 | 49 | 1006.0 |
| 20260508003056 | 52 | 302 | 0.0 | 0.0 | 0.00 | 0.19 | 0.10 | 47 | 1005.9 |
| 20260508002556 | 52 | 302 | 0.0 | 0.0 | 0.00 | 0.19 | 0.10 | 45 | 1005.7 |
| 20260508002055 | 52 | 297 | 0.0 | 0.0 | 0.00 | 0.19 | 0.10 | 45 | 1005.7 |
| 20260508001559 | 53 | 299 | 0.0 | 0.0 | 0.00 | 0.19 | 0.10 | 45 | 1005.7 |
| 20260508001054 | 53 | 360 | 0.0 | 0.0 | 0.00 | 0.19 | 0.10 | 44 | 1005.6 |
| 20260508000555 | 53 | 321 | 0.0 | 0.0 | 0.00 | 0.19 | 0.10 | 44 | 1005.6 |
| 20260508000055 | 54 | 298 | 0.0 | 0.0 | 0.00 | 0.19 | 0.10 | 44 | 1005.5 |
| 20260507235555 | 54 | 304 | 0.0 | 0.0 | 0.00 | 0.20 | 0.10 | 44 | 1005.6 |
| 20260507235055 | 54 | 317 | 0.0 | 0.0 | 0.00 | 0.20 | 0.10 | 44 | 1005.5 |
| 20260507234556 | 55 | 235 | 0.0 | 0.0 | 0.00 | 0.20 | 0.10 | 43 | 1005.3 |
| 20260507234053 | 55 | 306 | 0.0 | 0.0 | 0.00 | 0.20 | 0.10 | 43 | 1005.3 |
| 20260507233553 | 55 | 306 | 0.0 | 0.0 | 0.00 | 0.20 | 0.10 | 42 | 1005.2 |
| 20260507233105 | 56 | 307 | 0.0 | 0.0 | 0.00 | 0.20 | 0.10 | 41 | 1005.2 |
| 20260507232553 | 56 | 289 | 0.0 | 0.0 | 0.00 | 0.20 | 0.10 | 39 | 1005.1 |
| 20260507232052 | 56 | 273 | 0.0 | 0.0 | 0.00 | 0.20 | 0.10 | 40 | 1005.0 |
| 20260507231553 | 56 | 333 | 0.0 | 0.0 | 0.00 | 0.20 | 0.10 | 39 | 1005.0 |
| 20260507231056 | 57 | 49 | 0.0 | 0.0 | 0.00 | 0.20 | 0.10 | 39 | 1004.8 |
| 20260507230555 | 57 | 308 | 0.0 | 0.0 | 0.00 | 0.20 | 0.10 | 39 | 1004.7 |
| 20260507230053 | 58 | 295 | 0.0 | 0.0 | 0.00 | 0.20 | 0.10 | 38 | 1004.6 |
| 20260507225552 | 58 | 11 | 0.0 | 0.0 | 0.00 | 0.21 | 0.10 | 38 | 1004.6 |
| 20260507225052 | 58 | 331 | 0.0 | 0.0 | 0.00 | 0.21 | 0.10 | 37 | 1004.5 |
| 20260507224552 | 58 | 296 | 0.0 | 0.0 | 0.00 | 0.21 | 0.10 | 40 | 1004.4 |
| 20260507224055 | 58 | 338 | 0.0 | 0.0 | 0.00 | 0.21 | 0.10 | 39 | 1004.4 |
| 20260507223554 | 59 | 299 | 0.0 | 0.0 | 0.00 | 0.21 | 0.10 | 37 | 1004.3 |
| 20260507223052 | 59 | 333 | 0.0 | 0.0 | 0.00 | 0.21 | 0.10 | 38 | 1004.3 |
| 20260507222552 | 59 | 246 | 0.0 | 0.0 | 0.00 | 0.21 | 0.10 | 39 | 1004.2 |
| 20260507222051 | 59 | 284 | 0.0 | 0.0 | 0.00 | 0.21 | 0.10 | 38 | 1004.1 |
| 20260507221551 | 59 | 290 | 0.0 | 0.0 | 0.00 | 0.21 | 0.10 | 37 | 1004.1 |
| 20260507221053 | 59 | 288 | 0.0 | 0.0 | 0.00 | 0.21 | 0.10 | 39 | 1004.1 |
| 20260507220550 | 59 | 38 | 0.0 | 0.9 | 0.00 | 0.21 | 0.10 | 41 | 1004.0 |
| 20260507220050 | 59 | 78 | 0.0 | 0.9 | 0.00 | 0.21 | 0.10 | 42 | 1004.0 |
| 20260507215550 | 58 | 16 | 0.0 | 0.9 | 0.00 | 0.30 | 0.10 | 38 | 1004.0 |
| 20260507215050 | 59 | 327 | 0.0 | 0.0 | 0.00 | 0.30 | 0.10 | 39 | 1004.0 |
| 20260507214551 | 59 | 320 | 0.0 | 0.0 | 0.00 | 0.30 | 0.10 | 39 | 1004.0 |
| 20260507214052 | 59 | 11 | 0.0 | 0.0 | 0.00 | 0.30 | 0.10 | 39 | 1003.9 |
| 20260507213550 | 59 | 36 | 0.0 | 0.0 | 0.00 | 0.30 | 0.10 | 40 | 1004.0 |
| 20260507213050 | 59 | 263 | 0.0 | 0.0 | 0.00 | 0.30 | 0.10 | 40 | 1004.0 |
| 20260507212549 | 59 | 259 | 0.0 | 0.0 | 0.00 | 0.30 | 0.10 | 39 | 1003.9 |
| 20260507212051 | 59 | 17 | 0.0 | 0.0 | 0.00 | 0.30 | 0.10 | 39 | 1003.9 |
| 20260507211553 | 60 | 292 | 0.0 | 0.0 | 0.00 | 0.30 | 0.10 | 38 | 1004.0 |
| 20260507211048 | 60 | 338 | 0.0 | 0.0 | 0.00 | 0.30 | 0.10 | 38 | 1003.8 |
| 20260507210548 | 60 | 312 | 0.0 | 0.0 | 0.00 | 0.30 | 0.10 | 38 | 1003.8 |
| 20260507210048 | 60 | 261 | 0.0 | 0.0 | 0.00 | 0.30 | 0.10 | 40 | 1003.8 |
| 20260507205548 | 60 | 275 | 0.0 | 0.0 | 0.00 | 0.41 | 0.10 | 40 | 1003.7 |
| 20260507205051 | 59 | 296 | 0.0 | 0.0 | 0.00 | 0.41 | 0.10 | 41 | 1003.7 |
| 20260507204549 | 59 | 307 | 0.0 | 0.0 | 0.00 | 0.41 | 0.10 | 42 | 1003.6 |
| 20260507204047 | 59 | 317 | 0.0 | 0.0 | 0.00 | 0.41 | 0.10 | 41 | 1003.6 |
| 20260507203547 | 59 | 311 | 0.0 | 0.0 | 0.00 | 0.41 | 0.10 | 43 | 1003.6 |
| 20260507203048 | 60 | 360 | 0.0 | 0.0 | 0.00 | 0.41 | 0.10 | 39 | 1003.5 |
| 20260507202548 | 60 | 281 | 0.0 | 0.0 | 0.00 | 0.41 | 0.10 | 41 | 1003.6 |
| 20260507202048 | 61 | 275 | 0.0 | 0.9 | 0.00 | 0.41 | 0.10 | 42 | 1003.5 |
| 20260507201547 | 61 | 296 | 0.0 | 0.9 | 0.00 | 0.41 | 0.10 | 38 | 1003.5 |
| 20260507201048 | 61 | 265 | 0.0 | 0.9 | 0.00 | 0.41 | 0.10 | 35 | 1003.5 |
| 20260507200546 | 61 | 310 | 0.0 | 0.9 | 0.00 | 0.41 | 0.10 | 36 | 1003.5 |
| 20260507200047 | 61 | 212 | 0.0 | 0.0 | 0.00 | 0.41 | 0.10 | 34 | 1003.5 |
| 20260507195545 | 62 | 300 | 0.0 | 0.0 | 0.00 | 0.57 | 0.10 | 40 | 1003.4 |
| 20260507195046 | 62 | 281 | 0.0 | 0.0 | 0.00 | 0.57 | 0.10 | 36 | 1003.4 |
| 20260507194547 | 62 | 261 | 0.0 | 0.0 | 0.00 | 0.57 | 0.10 | 42 | 1003.5 |
| 20260507194045 | 62 | 241 | 0.0 | 0.0 | 0.00 | 0.57 | 0.10 | 44 | 1003.5 |
| 20260507193543 | 62 | 269 | 0.0 | 0.0 | 0.00 | 0.57 | 0.10 | 48 | 1003.5 |
| 20260507193042 | 62 | 280 | 0.0 | 0.0 | 0.00 | 0.57 | 0.10 | 48 | 1003.6 |
| 20260507192540 | 61 | 312 | 0.0 | 0.0 | 0.00 | 0.57 | 0.10 | 52 | 1003.7 |
| 20260507192041 | 61 | 177 | 0.0 | 0.0 | 0.00 | 0.57 | 0.10 | 52 | 1003.7 |
| 20260507191540 | 60 | 46 | 0.0 | 0.0 | 0.00 | 0.57 | 0.10 | 51 | 1003.7 |
| 20260507191039 | 61 | 360 | 0.0 | 0.0 | 0.00 | 0.57 | 0.10 | 54 | 1003.7 |
| 20260507190543 | 61 | 302 | 0.0 | 0.9 | 0.00 | 0.57 | 0.10 | 52 | 1003.7 |
| 20260507190039 | 61 | 286 | 0.0 | 0.9 | 0.00 | 0.59 | 0.10 | 52 | 1003.7 |
| 20260507185539 | 61 | 17 | 0.0 | 0.0 | 0.00 | 0.59 | 0.10 | 54 | 1003.7 |
| 20260507185039 | 61 | 329 | 0.0 | 0.9 | 0.00 | 0.59 | 0.10 | 52 | 1003.8 |
| 20260507184538 | 62 | 344 | 0.0 | 0.9 | 0.00 | 0.59 | 0.10 | 50 | 1003.8 |
| 20260507184041 | 62 | 303 | 0.0 | 0.9 | 0.00 | 0.59 | 0.10 | 55 | 1003.8 |
| 20260507183541 | 61 | 326 | 0.0 | 0.0 | 0.00 | 0.59 | 0.10 | 56 | 1003.7 |
| 20260507183046 | 61 | 229 | 0.0 | 0.0 | 0.00 | 0.59 | 0.10 | 52 | 1003.8 |
| 20260507182537 | 61 | 268 | 0.0 | 0.0 | 0.00 | 0.59 | 0.10 | 55 | 1003.7 |
| 20260507182037 | 60 | 291 | 0.0 | 0.9 | 0.00 | 0.59 | 0.10 | 60 | 1003.7 |
| 20260507181540 | 59 | 34 | 0.0 | 0.9 | 0.00 | 0.59 | 0.10 | 61 | 1003.8 |
| 20260507181036 | 58 | 152 | 0.0 | 0.0 | 0.00 | 0.59 | 0.10 | 66 | 1003.9 |
| 20260507180535 | 58 | 152 | 0.0 | 0.0 | 0.00 | 0.59 | 0.10 | 67 | 1003.9 |
| 20260507180036 | 59 | 152 | 0.0 | 0.0 | 0.00 | 0.59 | 0.10 | 65 | 1004.1 |
| 20260507175534 | 59 | 198 | 0.0 | 0.0 | 0.00 | 0.59 | 0.10 | 68 | 1004.0 |
| 20260507175034 | 58 | 216 | 0.0 | 0.0 | 0.00 | 0.59 | 0.10 | 70 | 1004.0 |
| 20260507174533 | 57 | 215 | 0.0 | 0.0 | 0.00 | 0.59 | 0.10 | 72 | 1004.2 |
| 20260507174033 | 57 | 241 | 0.0 | 0.0 | 0.00 | 0.59 | 0.10 | 69 | 1004.3 |
| 20260507173533 | 57 | 244 | 0.0 | 0.0 | 0.00 | 0.59 | 0.10 | 68 | 1004.4 |
| 20260507173034 | 58 | 293 | 0.0 | 0.0 | 0.00 | 0.59 | 0.10 | 66 | 1004.4 |
| 20260507172536 | 59 | 302 | 0.0 | 0.0 | 0.00 | 0.59 | 0.10 | 68 | 1004.4 |
| 20260507172035 | 60 | 329 | 0.0 | 0.0 | 0.00 | 0.59 | 0.10 | 66 | 1004.3 |
| 20260507171533 | 60 | 348 | 0.0 | 0.0 | 0.00 | 0.59 | 0.10 | 60 | 1004.4 |
| 20260507171032 | 60 | 350 | 0.0 | 0.0 | 0.00 | 0.59 | 0.10 | 58 | 1004.3 |
| 20260507170532 | 61 | 350 | 0.0 | 0.0 | 0.00 | 0.59 | 0.10 | 56 | 1004.4 |
| 20260507170032 | 61 | 278 | 0.0 | 0.0 | 0.00 | 0.59 | 0.10 | 56 | 1004.4 |
| 20260507165531 | 61 | 271 | 0.0 | 0.0 | 0.00 | 0.59 | 0.10 | 55 | 1004.4 |
| 20260507165032 | 61 | 29 | 0.0 | 0.0 | 0.00 | 0.59 | 0.10 | 55 | 1004.3 |
| 20260507164541 | 60 | 309 | 0.0 | 0.0 | 0.00 | 0.59 | 0.10 | 58 | 1004.4 |
| 20260507164032 | 61 | 288 | 0.0 | 0.0 | 0.00 | 0.59 | 0.10 | 55 | 1004.5 |
| 20260507163531 | 61 | 293 | 0.0 | 0.0 | 0.00 | 0.59 | 0.10 | 55 | 1004.6 |
| 20260507163037 | 61 | 276 | 0.0 | 0.0 | 0.00 | 0.59 | 0.10 | 59 | 1004.6 |
| 20260507162531 | 61 | 348 | 0.0 | 0.0 | 0.00 | 0.59 | 0.10 | 56 | 1004.7 |
| 20260507162031 | 61 | 322 | 0.0 | 0.0 | 0.00 | 0.59 | 0.10 | 58 | 1004.7 |
| 20260507161540 | 61 | 225 | 0.0 | 0.0 | 0.00 | 0.59 | 0.10 | 59 | 1004.8 |
| 20260507161031 | 60 | 280 | 0.0 | 0.0 | 0.00 | 0.59 | 0.10 | 60 | 1004.9 |
| 20260507160531 | 60 | 289 | 0.0 | 0.0 | 0.00 | 0.59 | 0.10 | 56 | 1005.0 |
| 20260507160042 | 61 | 290 | 0.0 | 0.0 | 0.00 | 0.59 | 0.10 | 56 | 1005.1 |
| 20260507155530 | 61 | 293 | 0.0 | 0.0 | 0.00 | 0.59 | 0.10 | 54 | 1005.2 |
| 20260507155030 | 62 | 266 | 0.0 | 0.0 | 0.00 | 0.59 | 0.10 | 54 | 1005.2 |
| 20260507154531 | 62 | 313 | 0.0 | 0.0 | 0.00 | 0.59 | 0.10 | 60 | 1005.2 |
| 20260507154029 | 61 | 319 | 0.0 | 0.0 | 0.00 | 0.59 | 0.10 | 60 | 1005.4 |
| 20260507153528 | 61 | 284 | 0.0 | 0.0 | 0.00 | 0.59 | 0.10 | 57 | 1005.4 |
| 20260507153031 | 62 | 225 | 0.0 | 0.0 | 0.00 | 0.59 | 0.10 | 54 | 1005.4 |
| 20260507152528 | 62 | 248 | 0.0 | 0.0 | 0.00 | 0.59 | 0.10 | 62 | 1005.4 |
| 20260507152030 | 62 | 267 | 0.0 | 0.0 | 0.00 | 0.59 | 0.10 | 60 | 1005.4 |
| 20260507151526 | 62 | 242 | 0.0 | 0.0 | 0.00 | 0.59 | 0.10 | 65 | 1005.4 |
| 20260507151026 | 61 | 44 | 0.0 | 0.0 | 0.00 | 0.59 | 0.10 | 61 | 1005.5 |
| 20260507150524 | 60 | 250 | 0.0 | 0.0 | 0.00 | 0.59 | 0.10 | 65 | 1005.5 |
| 20260507150027 | 60 | 242 | 0.0 | 0.0 | 0.00 | 0.59 | 0.10 | 61 | 1005.6 |
| 20260507145524 | 60 | 258 | 0.0 | 0.0 | 0.00 | 0.59 | 0.10 | 65 | 1005.6 |
| 20260507145027 | 60 | 294 | 0.0 | 0.9 | 0.00 | 0.59 | 0.10 | 64 | 1005.7 |
| 20260507144531 | 60 | 287 | 0.0 | 0.9 | 0.00 | 0.59 | 0.10 | 61 | 1005.7 |
| 20260507144023 | 60 | 310 | 0.0 | 0.0 | 0.00 | 0.59 | 0.10 | 66 | 1005.6 |
| 20260507143521 | 60 | 244 | 0.0 | 0.0 | 0.00 | 0.59 | 0.10 | 66 | 1005.8 |
| 20260507143021 | 59 | 207 | 0.0 | 0.0 | 0.00 | 0.59 | 0.10 | 67 | 1005.9 |
| 20260507142519 | 59 | 150 | 0.0 | 0.0 | 0.00 | 0.59 | 0.10 | 68 | 1006.0 |
| 20260507142018 | 59 | 268 | 0.0 | 0.0 | 0.00 | 0.59 | 0.10 | 73 | 1006.1 |
| 20260507141520 | 58 | 253 | 0.0 | 0.0 | 0.00 | 0.59 | 0.10 | 70 | 1006.0 |
| 20260507141017 | 58 | 281 | 0.0 | 0.0 | 0.00 | 0.59 | 0.10 | 71 | 1006.0 |
| 20260507140515 | 58 | 269 | 0.0 | 0.0 | 0.00 | 0.59 | 0.10 | 68 | 1006.1 |
| 20260507140014 | 57 | 271 | 0.0 | 0.0 | 0.00 | 0.59 | 0.10 | 70 | 1006.1 |
| 20260507135513 | 57 | 269 | 0.0 | 0.0 | 0.00 | 0.59 | 0.10 | 68 | 1006.2 |
| 20260507135011 | 56 | 267 | 0.0 | 0.0 | 0.00 | 0.59 | 0.10 | 75 | 1006.2 |
| 20260507134510 | 56 | 245 | 0.0 | 0.0 | 0.00 | 0.59 | 0.10 | 73 | 1006.2 |
| 20260507134008 | 55 | 245 | 0.0 | 0.0 | 0.00 | 0.59 | 0.10 | 74 | 1006.2 |
| 20260507133507 | 54 | 348 | 0.0 | 0.0 | 0.00 | 0.59 | 0.10 | 75 | 1006.2 |
| 20260507133007 | 54 | 321 | 0.0 | 0.0 | 0.00 | 0.59 | 0.10 | 73 | 1006.3 |
| 20260507132505 | 54 | 338 | 0.0 | 0.0 | 0.00 | 0.59 | 0.10 | 75 | 1006.2 |
| 20260507132004 | 53 | 297 | 0.0 | 0.0 | 0.00 | 0.59 | 0.10 | 75 | 1006.2 |
| 20260507131503 | 53 | 298 | 0.0 | 0.0 | 0.00 | 0.59 | 0.10 | 78 | 1006.2 |
| 20260507131001 | 52 | 298 | 0.0 | 0.0 | 0.00 | 0.59 | 0.10 | 78 | 1006.2 |
| 20260507130500 | 52 | 284 | 0.0 | 0.0 | 0.00 | 0.59 | 0.10 | 78 | 1006.2 |
| 20260507130111 | 51 | 349 | 0.0 | 0.0 | 0.00 | 0.59 | 0.10 | 80 | 1006.3 |
| 20260507125600 | 51 | 349 | 0.0 | 0.0 | 0.00 | 0.59 | 0.10 | 81 | 1006.3 |
| 20260507125059 | 50 | 275 | 0.0 | 0.0 | 0.00 | 0.59 | 0.10 | 82 | 1006.5 |
| 20260507124634 | 50 | 253 | 0.0 | 0.0 | 0.00 | 0.59 | 0.10 | 83 | 1006.5 |
| 20260507124058 | 50 | 315 | 0.0 | 0.0 | 0.00 | 0.59 | 0.10 | 83 | 1006.5 |
| 20260507123558 | 49 | 355 | 0.0 | 0.0 | 0.00 | 0.59 | 0.10 | 84 | 1006.5 |
| 20260507123057 | 49 | 342 | 0.0 | 0.0 | 0.00 | 0.59 | 0.10 | 84 | 1006.4 |
| 20260507122557 | 48 | 43 | 0.0 | 0.0 | 0.00 | 0.59 | 0.10 | 84 | 1006.3 |
| 20260507122057 | 48 | 346 | 0.0 | 0.0 | 0.00 | 0.59 | 0.10 | 87 | 1006.3 |
| 20260507121556 | 48 | 301 | 0.0 | 0.0 | 0.00 | 0.59 | 0.10 | 89 | 1006.4 |
| 20260507121056 | 48 | 301 | 0.0 | 0.0 | 0.00 | 0.59 | 0.10 | 89 | 1006.3 |
| 20260507120556 | 47 | 300 | 0.0 | 0.0 | 0.00 | 0.59 | 0.10 | 90 | 1006.4 |
| 20260507120056 | 47 | 299 | 0.0 | 0.0 | 0.00 | 0.59 | 0.10 | 90 | 1006.5 |
| 20260507115555 | 47 | 336 | 0.0 | 0.0 | 0.00 | 0.59 | 0.10 | 92 | 1006.4 |
| 20260507115057 | 46 | 350 | 0.0 | 0.0 | 0.00 | 0.59 | 0.10 | 93 | 1006.4 |
| 20260507114611 | 46 | 313 | 0.0 | 0.0 | 0.00 | 0.59 | 0.10 | 94 | 1006.3 |
| 20260507114054 | 46 | 313 | 0.0 | 0.0 | 0.00 | 0.59 | 0.10 | 95 | 1006.4 |
| 20260507113554 | 46 | 313 | 0.0 | 0.0 | 0.00 | 0.59 | 0.10 | 95 | 1006.4 |
| 20260507113056 | 45 | 313 | 0.0 | 0.0 | 0.00 | 0.59 | 0.10 | 95 | 1006.6 |
| 20260507112556 | 45 | 313 | 0.0 | 0.0 | 0.00 | 0.59 | 0.10 | 95 | 1006.8 |
| 20260507112053 | 45 | 313 | 0.0 | 0.0 | 0.00 | 0.59 | 0.10 | 96 | 1006.8 |
| 20260507111554 | 45 | 313 | 0.0 | 0.0 | 0.00 | 0.59 | 0.10 | 96 | 1006.9 |
| 20260507111052 | 45 | 313 | 0.0 | 0.0 | 0.00 | 0.59 | 0.10 | 96 | 1006.9 |
| 20260507110554 | 45 | 313 | 0.0 | 0.0 | 0.00 | 0.59 | 0.10 | 95 | 1006.4 |
| 20260507110052 | 45 | 313 | 0.0 | 0.0 | 0.00 | 0.59 | 0.10 | 96 | 1006.6 |
| 20260507105551 | 45 | 313 | 0.0 | 0.0 | 0.00 | 0.59 | 0.10 | 96 | 1007.0 |
| 20260507105052 | 45 | 313 | 0.0 | 0.0 | 0.00 | 0.59 | 0.10 | 96 | 1007.1 |
| 20260507104556 | 44 | 313 | 0.0 | 0.0 | 0.00 | 0.59 | 0.10 | 96 | 1006.7 |
| 20260507104052 | 44 | 313 | 0.0 | 0.0 | 0.00 | 0.59 | 0.10 | 96 | 1006.9 |
| 20260507103552 | 44 | 313 | 0.0 | 0.0 | 0.00 | 0.59 | 0.10 | 96 | 1006.6 |
| 20260507103051 | 44 | 313 | 0.0 | 0.0 | 0.00 | 0.59 | 0.10 | 96 | 1007.2 |
| 20260507102551 | 44 | 313 | 0.0 | 0.0 | 0.00 | 0.59 | 0.10 | 95 | 1006.3 |
| 20260507102051 | 44 | 313 | 0.0 | 0.0 | 0.00 | 0.59 | 0.10 | 96 | 1006.5 |
| 20260507101552 | 44 | 313 | 0.0 | 0.0 | 0.00 | 0.59 | 0.10 | 95 | 1006.7 |
| 20260507101050 | 44 | 313 | 0.0 | 0.0 | 0.00 | 0.59 | 0.10 | 95 | 1006.8 |
| 20260507100550 | 44 | 313 | 0.0 | 0.0 | 0.00 | 0.59 | 0.10 | 95 | 1006.9 |
| 20260507100054 | 44 | 313 | 0.0 | 0.0 | 0.00 | 0.59 | 0.10 | 95 | 1006.5 |
| 20260507095549 | 44 | 313 | 0.0 | 0.0 | 0.00 | 0.59 | 0.10 | 95 | 1006.2 |
| 20260507095049 | 44 | 313 | 0.0 | 0.0 | 0.00 | 0.59 | 0.10 | 95 | 1006.1 |
| 20260507094549 | 44 | 313 | 0.0 | 0.0 | 0.00 | 0.59 | 0.10 | 95 | 1006.1 |
| 20260507094051 | 44 | 313 | 0.0 | 0.0 | 0.00 | 0.59 | 0.10 | 95 | 1006.4 |
| 20260507093552 | 44 | 313 | 0.0 | 0.0 | 0.00 | 0.59 | 0.10 | 95 | 1006.0 |
| 20260507093047 | 44 | 313 | 0.0 | 0.0 | 0.00 | 0.59 | 0.10 | 95 | 1005.9 |
| 20260507092547 | 45 | 313 | 0.0 | 0.0 | 0.00 | 0.59 | 0.10 | 95 | 1005.8 |
| 20260507092046 | 45 | 313 | 0.0 | 0.0 | 0.00 | 0.59 | 0.10 | 95 | 1006.0 |
| 20260507091546 | 45 | 313 | 0.0 | 0.0 | 0.00 | 0.59 | 0.10 | 95 | 1006.2 |
| 20260507091046 | 45 | 313 | 0.0 | 0.0 | 0.00 | 0.59 | 0.10 | 95 | 1006.5 |
| 20260507090544 | 45 | 313 | 0.0 | 0.0 | 0.00 | 0.59 | 0.10 | 95 | 1006.3 |
| 20260507090045 | 45 | 313 | 0.0 | 0.0 | 0.00 | 0.59 | 0.10 | 95 | 1006.2 |
| 20260507085546 | 45 | 313 | 0.0 | 0.0 | 0.00 | 0.59 | 0.10 | 95 | 1006.1 |
| 20260507085044 | 45 | 313 | 0.0 | 0.0 | 0.00 | 0.59 | 0.10 | 95 | 1006.6 |
| 20260507084544 | 45 | 309 | 0.0 | 0.0 | 0.00 | 0.59 | 0.10 | 95 | 1006.3 |
| 20260507084043 | 45 | 308 | 0.0 | 0.0 | 0.00 | 0.59 | 0.10 | 95 | 1006.2 |
| 20260507083544 | 45 | 312 | 0.0 | 0.0 | 0.00 | 0.59 | 0.10 | 95 | 1005.9 |
| 20260507083042 | 46 | 313 | 0.0 | 0.0 | 0.00 | 0.59 | 0.10 | 95 | 1005.9 |
| 20260507082542 | 46 | 311 | 0.0 | 0.0 | 0.00 | 0.59 | 0.10 | 95 | 1006.2 |
| 20260507082041 | 46 | 311 | 0.0 | 0.0 | 0.00 | 0.59 | 0.10 | 95 | 1006.5 |
| 20260507081541 | 46 | 311 | 0.0 | 0.0 | 0.00 | 0.59 | 0.10 | 95 | 1006.3 |
| 20260507081038 | 46 | 307 | 0.0 | 0.0 | 0.00 | 0.59 | 0.10 | 95 | 1005.9 |
| 20260507080539 | 46 | 331 | 0.0 | 0.0 | 0.00 | 0.59 | 0.10 | 95 | 1005.9 |
| 20260507080038 | 46 | 336 | 0.0 | 0.0 | 0.00 | 0.59 | 0.10 | 95 | 1005.8 |
| 20260507075538 | 46 | 312 | 0.0 | 0.0 | 0.00 | 0.59 | 0.10 | 95 | 1005.8 |
| 20260507075040 | 46 | 61 | 0.0 | 0.0 | 0.00 | 0.59 | 0.10 | 95 | 1005.8 |
| 20260507074542 | 46 | 271 | 0.0 | 0.0 | 0.00 | 0.59 | 0.10 | 95 | 1005.8 |
| 20260507074034 | 47 | 297 | 0.0 | 0.0 | 0.00 | 0.59 | 0.10 | 96 | 1005.7 |
| 20260507073538 | 47 | 297 | 0.0 | 0.0 | 0.00 | 0.59 | 0.10 | 96 | 1005.8 |
| 20260507073039 | 47 | 320 | 0.0 | 0.0 | 0.00 | 0.59 | 0.10 | 96 | 1005.8 |
| 20260507072533 | 47 | 299 | 0.0 | 0.0 | 0.00 | 0.59 | 0.10 | 96 | 1005.7 |
| 20260507072033 | 47 | 299 | 0.0 | 0.0 | 0.00 | 0.59 | 0.10 | 96 | 1005.6 |
| 20260507071534 | 47 | 303 | 0.0 | 0.0 | 0.00 | 0.59 | 0.10 | 96 | 1005.7 |
| 20260507071030 | 47 | 284 | 0.0 | 0.0 | 0.00 | 0.59 | 0.10 | 96 | 1005.5 |
| 20260507070533 | 47 | 305 | 0.0 | 0.0 | 0.00 | 0.59 | 0.10 | 96 | 1005.4 |
| 20260507070031 | 48 | 248 | 0.0 | 0.0 | 0.00 | 0.59 | 0.10 | 96 | 1005.4 |
| 20260507065529 | 48 | 316 | 0.0 | 0.0 | 0.00 | 0.59 | 0.10 | 96 | 1005.3 |
| 20260507065029 | 48 | 317 | 0.0 | 0.0 | 0.00 | 0.59 | 0.10 | 96 | 1005.3 |
| 20260507064528 | 48 | 317 | 0.0 | 0.0 | 0.00 | 0.59 | 0.10 | 96 | 1005.3 |
| 20260507064028 | 48 | 317 | 0.0 | 0.0 | 0.00 | 0.59 | 0.10 | 96 | 1005.2 |
| 20260507063527 | 48 | 317 | 0.0 | 0.0 | 0.00 | 0.59 | 0.10 | 96 | 1005.1 |
| 20260507063039 | 48 | 317 | 0.0 | 0.0 | 0.00 | 0.59 | 0.10 | 96 | 1004.9 |
| 20260507062526 | 48 | 317 | 0.0 | 0.0 | 0.00 | 0.59 | 0.10 | 96 | 1004.9 |
| 20260507062025 | 48 | 317 | 0.0 | 0.0 | 0.00 | 0.59 | 0.10 | 96 | 1004.8 |
| 20260507061527 | 48 | 317 | 0.0 | 0.0 | 0.00 | 0.59 | 0.10 | 96 | 1004.9 |
| 20260507061024 | 48 | 317 | 0.0 | 0.0 | 0.01 | 0.59 | 0.10 | 96 | 1005.0 |
| 20260507060526 | 48 | 317 | 0.0 | 0.0 | 0.01 | 0.59 | 0.10 | 96 | 1005.0 |